Year,Month,Day,Hour,Minute,Value (Times are PST for temperature in C)
2016,08,25,00,00,20.10
2016,08,25,00,01,20.10
2016,08,25,00,02,20.10
2016,08,25,00,03,20.10
2016,08,25,00,04,20.00
2016,08,25,00,05,20.00
2016,08,25,00,06,20.00
2016,08,25,00,07,19.90
2016,08,25,00,08,19.90
2016,08,25,00,09,19.90
2016,08,25,00,10,19.90
2016,08,25,00,11,19.90
2016,08,25,00,12,19.90
2016,08,25,00,13,19.90
2016,08,25,00,14,19.80
2016,08,25,00,15,19.80
2016,08,25,00,16,19.80
2016,08,25,00,17,19.80
2016,08,25,00,18,19.80
2016,08,25,00,19,19.70
2016,08,25,00,20,19.70
2016,08,25,00,21,19.70
2016,08,25,00,22,19.70
2016,08,25,00,23,19.70
2016,08,25,00,24,19.70
2016,08,25,00,25,19.60
2016,08,25,00,26,19.60
2016,08,25,00,27,19.60
2016,08,25,00,28,19.60
2016,08,25,00,29,19.50
2016,08,25,00,30,19.50
2016,08,25,00,31,19.40
2016,08,25,00,32,19.40
2016,08,25,00,33,19.40
2016,08,25,00,34,19.40
2016,08,25,00,35,19.40
2016,08,25,00,36,19.30
2016,08,25,00,37,19.30
2016,08,25,00,38,19.30
2016,08,25,00,39,19.30
2016,08,25,00,40,19.30
2016,08,25,00,41,19.30
2016,08,25,00,42,19.20
2016,08,25,00,43,19.20
2016,08,25,00,44,19.20
2016,08,25,00,45,19.20
2016,08,25,00,46,19.20
2016,08,25,00,47,19.20
2016,08,25,00,48,19.20
2016,08,25,00,49,19.20
2016,08,25,00,50,19.20
2016,08,25,00,51,19.10
2016,08,25,00,52,19.10
2016,08,25,00,53,19.10
2016,08,25,00,54,19.10
2016,08,25,00,55,19.00
2016,08,25,00,56,19.00
2016,08,25,00,57,19.00
2016,08,25,00,58,19.00
2016,08,25,00,59,19.00
2016,08,25,01,00,19.00
2016,08,25,01,01,19.00
2016,08,25,01,02,19.00
2016,08,25,01,03,19.00
2016,08,25,01,04,19.00
2016,08,25,01,05,19.00
2016,08,25,01,06,18.90
2016,08,25,01,07,18.80
2016,08,25,01,08,18.80
2016,08,25,01,09,18.80
2016,08,25,01,10,18.80
2016,08,25,01,11,18.80
2016,08,25,01,12,18.80
2016,08,25,01,13,18.80
2016,08,25,01,14,18.80
2016,08,25,01,15,18.80
2016,08,25,01,16,18.80
2016,08,25,01,17,18.70
2016,08,25,01,18,18.70
2016,08,25,01,19,18.70
2016,08,25,01,20,18.70
2016,08,25,01,21,18.70
2016,08,25,01,22,18.70
2016,08,25,01,23,18.60
2016,08,25,01,24,18.60
2016,08,25,01,25,18.60
2016,08,25,01,26,18.60
2016,08,25,01,27,18.50
2016,08,25,01,28,18.50
2016,08,25,01,29,18.50
2016,08,25,01,30,18.40
2016,08,25,01,31,18.40
2016,08,25,01,32,18.40
2016,08,25,01,33,18.40
2016,08,25,01,34,18.30
2016,08,25,01,35,18.30
2016,08,25,01,36,18.30
2016,08,25,01,37,18.30
2016,08,25,01,38,18.30
2016,08,25,01,39,18.30
2016,08,25,01,40,18.30
2016,08,25,01,41,18.30
2016,08,25,01,42,18.30
2016,08,25,01,43,18.20
2016,08,25,01,44,18.20
2016,08,25,01,45,18.20
2016,08,25,01,46,18.20
2016,08,25,01,47,18.20
2016,08,25,01,48,18.20
2016,08,25,01,49,18.20
2016,08,25,01,50,18.20
2016,08,25,01,51,18.20
2016,08,25,01,52,18.20
2016,08,25,01,53,18.10
2016,08,25,01,54,18.10
2016,08,25,01,55,18.10
2016,08,25,01,56,18.10
2016,08,25,01,57,18.10
2016,08,25,01,58,18.10
2016,08,25,01,59,18.10
2016,08,25,02,00,18.00
2016,08,25,02,01,18.00
2016,08,25,02,02,18.00
2016,08,25,02,03,17.90
2016,08,25,02,04,17.90
2016,08,25,02,05,17.90
2016,08,25,02,06,17.90
2016,08,25,02,07,17.90
2016,08,25,02,08,17.90
2016,08,25,02,09,17.80
2016,08,25,02,10,17.80
2016,08,25,02,11,17.80
2016,08,25,02,12,17.80
2016,08,25,02,13,17.70
2016,08,25,02,14,17.70
2016,08,25,02,15,17.70
2016,08,25,02,16,17.60
2016,08,25,02,17,17.60
2016,08,25,02,18,17.60
2016,08,25,02,19,17.60
2016,08,25,02,20,17.50
2016,08,25,02,21,17.50
2016,08,25,02,22,17.50
2016,08,25,02,23,17.40
2016,08,25,02,24,17.40
2016,08,25,02,25,17.40
2016,08,25,02,26,17.40
2016,08,25,02,27,17.40
2016,08,25,02,28,17.40
2016,08,25,02,29,17.40
2016,08,25,02,30,17.40
2016,08,25,02,31,17.40
2016,08,25,02,32,17.40
2016,08,25,02,33,17.40
2016,08,25,02,34,17.40
2016,08,25,02,35,17.40
2016,08,25,02,36,17.40
2016,08,25,02,37,17.40
2016,08,25,02,38,17.40
2016,08,25,02,39,17.40
2016,08,25,02,40,17.40
2016,08,25,02,41,17.40
2016,08,25,02,42,17.30
2016,08,25,02,43,17.30
2016,08,25,02,44,17.30
2016,08,25,02,45,17.30
2016,08,25,02,46,17.30
2016,08,25,02,47,17.30
2016,08,25,02,48,17.30
2016,08,25,02,49,17.30
2016,08,25,02,50,17.30
2016,08,25,02,51,17.30
2016,08,25,02,52,17.30
2016,08,25,02,53,17.30
2016,08,25,02,54,17.30
2016,08,25,02,55,17.30
2016,08,25,02,56,17.30
2016,08,25,02,57,17.30
2016,08,25,02,58,17.30
2016,08,25,03,13,17.00
2016,08,25,03,14,17.00
2016,08,25,03,15,16.90
2016,08,25,03,16,16.90
2016,08,25,03,17,16.90
2016,08,25,03,18,16.90
2016,08,25,03,19,16.90
2016,08,25,03,20,16.90
2016,08,25,03,21,16.90
2016,08,25,03,22,16.80
2016,08,25,03,23,16.80
2016,08,25,03,24,16.80
2016,08,25,03,25,16.80
2016,08,25,03,26,16.80
2016,08,25,03,27,16.80
2016,08,25,03,28,16.80
2016,08,25,03,29,16.70
2016,08,25,03,30,16.70
2016,08,25,03,31,16.70
2016,08,25,03,32,16.70
2016,08,25,03,33,16.70
2016,08,25,03,34,16.70
2016,08,25,03,35,16.70
2016,08,25,03,36,16.70
2016,08,25,03,37,16.70
2016,08,25,03,38,16.70
2016,08,25,03,39,16.70
2016,08,25,03,40,16.70
2016,08,25,03,41,16.70
2016,08,25,03,42,16.70
2016,08,25,03,43,16.70
2016,08,25,03,44,16.70
2016,08,25,03,45,16.70
2016,08,25,03,46,16.70
2016,08,25,03,47,16.70
2016,08,25,03,48,16.70
2016,08,25,03,49,16.70
2016,08,25,03,50,16.70
2016,08,25,03,51,16.60
2016,08,25,03,52,16.60
2016,08,25,03,53,16.60
2016,08,25,03,54,16.60
2016,08,25,03,55,16.60
2016,08,25,03,56,16.60
2016,08,25,03,57,16.60
2016,08,25,03,58,16.60
2016,08,25,03,59,16.50
2016,08,25,04,00,16.50
2016,08,25,04,01,16.50
2016,08,25,04,02,16.40
2016,08,25,04,03,16.40
2016,08,25,04,04,16.40
2016,08,25,04,05,16.40
2016,08,25,04,06,16.40
2016,08,25,04,07,16.30
2016,08,25,04,08,16.30
2016,08,25,04,09,16.30
2016,08,25,04,10,16.30
2016,08,25,04,11,16.30
2016,08,25,04,12,16.20
2016,08,25,04,13,16.20
2016,08,25,04,14,16.20
2016,08,25,04,15,16.20
2016,08,25,04,16,16.10
2016,08,25,04,17,16.10
2016,08,25,04,18,16.10
2016,08,25,04,19,16.10
2016,08,25,04,20,16.00
2016,08,25,04,21,16.00
2016,08,25,04,22,16.00
2016,08,25,04,23,15.90
2016,08,25,04,24,15.90
2016,08,25,04,25,15.90
2016,08,25,04,26,15.80
2016,08,25,04,27,15.80
2016,08,25,04,28,15.80
2016,08,25,04,29,15.80
2016,08,25,04,30,15.80
2016,08,25,04,31,15.80
2016,08,25,04,32,15.70
2016,08,25,04,33,15.70
2016,08,25,04,34,15.70
2016,08,25,04,35,15.70
2016,08,25,04,36,15.70
2016,08,25,04,37,15.70
2016,08,25,04,38,15.70
2016,08,25,04,39,15.70
2016,08,25,04,40,15.70
2016,08,25,04,41,15.70
2016,08,25,04,42,15.70
2016,08,25,04,43,15.70
2016,08,25,04,44,15.70
2016,08,25,04,45,15.70
2016,08,25,04,46,15.60
2016,08,25,04,47,15.60
2016,08,25,04,48,15.60
2016,08,25,04,49,15.60
2016,08,25,04,50,15.60
2016,08,25,04,51,15.60
2016,08,25,04,52,15.60
2016,08,25,04,53,15.60
2016,08,25,04,54,15.60
2016,08,25,04,55,15.60
2016,08,25,04,56,15.60
2016,08,25,04,57,15.60
2016,08,25,04,58,15.60
2016,08,25,04,59,15.50
2016,08,25,05,00,15.50
2016,08,25,05,01,15.50
2016,08,25,05,02,15.50
2016,08,25,05,03,15.50
2016,08,25,05,04,15.40
2016,08,25,05,05,15.40
2016,08,25,05,06,15.40
2016,08,25,05,07,15.40
2016,08,25,05,08,15.40
2016,08,25,05,09,15.30
2016,08,25,05,10,15.30
2016,08,25,05,11,15.30
2016,08,25,05,12,15.30
2016,08,25,05,13,15.30
2016,08,25,05,14,15.30
2016,08,25,05,15,15.30
2016,08,25,05,16,15.30
2016,08,25,05,17,15.30
2016,08,25,05,18,15.30
2016,08,25,05,19,15.30
2016,08,25,05,20,15.30
2016,08,25,05,21,15.30
2016,08,25,05,22,15.30
2016,08,25,05,23,15.30
2016,08,25,05,24,15.30
2016,08,25,05,25,15.30
2016,08,25,05,26,15.30
2016,08,25,05,27,15.30
2016,08,25,05,28,15.20
2016,08,25,05,29,15.20
2016,08,25,05,30,15.20
2016,08,25,05,31,15.20
2016,08,25,05,32,15.20
2016,08,25,05,33,15.20
2016,08,25,05,34,15.20
2016,08,25,05,35,15.20
2016,08,25,05,36,15.10
2016,08,25,05,37,15.10
2016,08,25,05,38,15.10
2016,08,25,05,39,15.10
2016,08,25,05,40,15.00
2016,08,25,05,41,15.10
2016,08,25,05,42,15.10
2016,08,25,05,43,15.10
2016,08,25,05,44,15.10
2016,08,25,05,45,15.10
2016,08,25,05,46,15.10
2016,08,25,05,47,15.10
2016,08,25,05,48,15.10
2016,08,25,05,49,15.20
2016,08,25,05,50,15.10
2016,08,25,05,51,15.10
2016,08,25,05,52,15.10
2016,08,25,05,53,15.10
2016,08,25,05,54,15.10
2016,08,25,05,55,15.10
2016,08,25,05,56,15.10
2016,08,25,05,57,15.10
2016,08,25,05,58,15.10
2016,08,25,05,59,15.10
2016,08,25,06,00,15.10
2016,08,25,06,01,15.10
2016,08,25,06,02,15.10
2016,08,25,06,03,15.00
2016,08,25,06,04,15.00
2016,08,25,06,05,15.00
2016,08,25,06,06,14.90
2016,08,25,06,07,14.90
2016,08,25,06,08,14.90
2016,08,25,06,09,14.90
2016,08,25,06,10,14.90
2016,08,25,06,11,14.80
2016,08,25,06,12,14.80
2016,08,25,06,13,14.80
2016,08,25,06,14,14.80
2016,08,25,06,15,14.80
2016,08,25,06,16,14.80
2016,08,25,06,17,14.80
2016,08,25,06,18,14.90
2016,08,25,06,19,14.90
2016,08,25,06,20,14.90
2016,08,25,06,21,14.90
2016,08,25,06,22,14.90
2016,08,25,06,23,15.00
2016,08,25,06,24,15.00
2016,08,25,06,25,15.00
2016,08,25,06,26,15.00
2016,08,25,06,27,15.00
2016,08,25,06,28,15.00
2016,08,25,06,29,15.00
2016,08,25,06,30,15.00
2016,08,25,06,31,15.00
2016,08,25,06,32,15.00
2016,08,25,06,33,15.00
2016,08,25,06,34,15.00
2016,08,25,06,35,15.00
2016,08,25,06,36,15.10
2016,08,25,06,37,15.00
2016,08,25,06,38,15.00
2016,08,25,06,39,15.00
2016,08,25,06,40,15.00
2016,08,25,06,41,15.00
2016,08,25,06,42,15.00
2016,08,25,06,43,15.00
2016,08,25,06,44,15.00
2016,08,25,06,45,14.90
2016,08,25,06,46,14.90
2016,08,25,06,47,14.90
2016,08,25,06,48,14.90
2016,08,25,06,49,14.90
2016,08,25,06,50,14.80
2016,08,25,06,51,14.80
2016,08,25,06,52,14.80
2016,08,25,06,53,14.80
2016,08,25,06,54,14.80
2016,08,25,06,55,14.80
2016,08,25,06,56,14.80
2016,08,25,06,57,14.80
2016,08,25,06,58,14.80
2016,08,25,06,59,14.80
2016,08,25,07,00,14.80
2016,08,25,07,01,14.70
2016,08,25,07,02,14.80
2016,08,25,07,03,14.80
2016,08,25,07,04,14.80
2016,08,25,07,05,14.80
2016,08,25,07,06,14.80
2016,08,25,07,07,14.70
2016,08,25,07,08,14.70
2016,08,25,07,09,14.70
2016,08,25,07,10,14.70
2016,08,25,07,11,14.70
2016,08,25,07,12,14.70
2016,08,25,07,13,14.70
2016,08,25,07,14,14.70
2016,08,25,07,15,14.70
2016,08,25,07,16,14.70
2016,08,25,07,17,14.70
2016,08,25,07,18,14.60
2016,08,25,07,19,14.60
2016,08,25,07,20,14.60
2016,08,25,07,21,14.60
2016,08,25,07,22,14.60
2016,08,25,07,23,14.60
2016,08,25,07,24,14.60
2016,08,25,07,25,14.60
2016,08,25,07,26,14.60
2016,08,25,07,27,14.60
2016,08,25,07,28,14.60
2016,08,25,07,29,14.60
2016,08,25,07,30,14.60
2016,08,25,07,31,14.60
2016,08,25,07,32,14.60
2016,08,25,07,33,14.60
2016,08,25,07,34,14.60
2016,08,25,07,35,14.60
2016,08,25,07,36,14.60
2016,08,25,07,37,14.60
2016,08,25,07,38,14.60
2016,08,25,07,39,14.60
2016,08,25,07,40,14.60
2016,08,25,07,41,14.60
2016,08,25,07,42,14.60
2016,08,25,07,43,14.60
2016,08,25,07,44,14.70
2016,08,25,07,45,14.70
2016,08,25,07,46,14.70
2016,08,25,07,47,14.80
2016,08,25,07,48,14.90
2016,08,25,07,49,15.00
2016,08,25,07,50,15.10
2016,08,25,07,51,15.20
2016,08,25,07,52,15.30
2016,08,25,07,53,15.40
2016,08,25,07,54,15.50
2016,08,25,07,55,15.60
2016,08,25,07,56,15.70
2016,08,25,07,57,15.90
2016,08,25,07,58,16.00
2016,08,25,07,59,16.20
2016,08,25,08,00,16.30
2016,08,25,08,01,16.40
2016,08,25,08,02,16.50
2016,08,25,08,03,16.50
2016,08,25,08,04,16.60
2016,08,25,08,05,16.70
2016,08,25,08,06,16.80
2016,08,25,08,07,16.90
2016,08,25,08,08,17.00
2016,08,25,08,09,17.00
2016,08,25,08,10,17.10
2016,08,25,08,11,17.20
2016,08,25,08,12,17.20
2016,08,25,08,13,17.20
2016,08,25,08,14,17.20
2016,08,25,08,15,17.20
2016,08,25,08,16,17.20
2016,08,25,08,17,17.30
2016,08,25,08,18,17.60
2016,08,25,08,19,17.70
2016,08,25,08,20,17.70
2016,08,25,08,21,17.80
2016,08,25,08,22,17.80
2016,08,25,08,23,17.90
2016,08,25,08,24,17.90
2016,08,25,08,25,17.90
2016,08,25,08,26,18.00
2016,08,25,08,27,18.00
2016,08,25,08,28,18.10
2016,08,25,08,29,18.10
2016,08,25,08,30,18.10
2016,08,25,08,31,18.20
2016,08,25,08,32,18.20
2016,08,25,08,33,18.20
2016,08,25,08,34,18.20
2016,08,25,08,35,18.30
2016,08,25,08,36,18.30
2016,08,25,08,37,18.30
2016,08,25,08,38,18.40
2016,08,25,08,39,18.40
2016,08,25,08,40,18.40
2016,08,25,08,41,18.50
2016,08,25,08,42,18.50
2016,08,25,08,43,18.60
2016,08,25,08,44,18.60
2016,08,25,08,45,18.70
2016,08,25,08,46,18.70
2016,08,25,08,47,18.80
2016,08,25,08,48,18.80
2016,08,25,08,49,18.80
2016,08,25,08,50,18.90
2016,08,25,08,51,18.90
2016,08,25,08,52,18.90
2016,08,25,08,53,18.90
2016,08,25,08,54,19.00
2016,08,25,08,55,19.10
2016,08,25,08,56,19.10
2016,08,25,08,57,19.20
2016,08,25,08,58,19.30
2016,08,25,08,59,19.30
2016,08,25,09,00,19.40
2016,08,25,09,01,19.50
2016,08,25,09,02,19.60
2016,08,25,09,03,19.60
2016,08,25,09,04,19.70
2016,08,25,09,05,19.70
2016,08,25,09,06,19.80
2016,08,25,09,07,19.80
2016,08,25,09,08,19.80
2016,08,25,09,09,19.80
2016,08,25,09,10,19.80
2016,08,25,09,11,19.80
2016,08,25,09,12,19.80
2016,08,25,09,13,19.90
2016,08,25,09,14,19.90
2016,08,25,09,15,19.90
2016,08,25,09,16,20.00
2016,08,25,09,17,20.00
2016,08,25,09,18,20.10
2016,08,25,09,19,20.10
2016,08,25,09,20,20.20
2016,08,25,09,21,20.20
2016,08,25,09,22,20.30
2016,08,25,09,23,20.30
2016,08,25,09,24,20.40
2016,08,25,09,25,20.50
2016,08,25,09,26,20.50
2016,08,25,09,27,20.60
2016,08,25,09,28,20.70
2016,08,25,09,29,20.80
2016,08,25,09,30,20.80
2016,08,25,09,31,20.90
2016,08,25,09,32,20.90
2016,08,25,09,33,21.00
2016,08,25,09,34,21.00
2016,08,25,09,35,21.10
2016,08,25,09,36,21.10
2016,08,25,09,37,21.10
2016,08,25,09,38,21.20
2016,08,25,09,39,21.20
2016,08,25,09,40,21.30
2016,08,25,09,41,21.30
2016,08,25,09,42,21.40
2016,08,25,09,43,21.40
2016,08,25,09,44,21.50
2016,08,25,09,45,21.50
2016,08,25,09,46,21.60
2016,08,25,09,47,21.60
2016,08,25,09,48,21.70
2016,08,25,09,49,21.70
2016,08,25,09,50,21.70
2016,08,25,09,51,21.70
2016,08,25,09,52,21.70
2016,08,25,09,53,21.80
2016,08,25,09,54,21.80
2016,08,25,09,55,21.80
2016,08,25,09,56,21.80
2016,08,25,09,57,21.90
2016,08,25,09,58,21.90
2016,08,25,09,59,22.00
2016,08,25,10,00,22.00
2016,08,25,10,01,22.10
2016,08,25,10,02,22.10
2016,08,25,10,03,22.20
2016,08,25,10,04,22.20
2016,08,25,10,05,22.30
2016,08,25,10,06,22.30
2016,08,25,10,07,22.30
2016,08,25,10,08,22.40
2016,08,25,10,09,22.40
2016,08,25,10,10,22.40
2016,08,25,10,11,22.40
2016,08,25,10,12,22.40
2016,08,25,10,13,22.50
2016,08,25,10,14,22.50
2016,08,25,10,15,22.60
2016,08,25,10,16,22.60
2016,08,25,10,17,22.60
2016,08,25,10,18,22.60
2016,08,25,10,19,22.60
2016,08,25,10,20,22.60
2016,08,25,10,21,22.60
2016,08,25,10,22,22.70
2016,08,25,10,23,22.70
2016,08,25,10,24,22.80
2016,08,25,10,25,22.80
2016,08,25,10,26,22.90
2016,08,25,10,27,23.00
2016,08,25,10,28,23.00
2016,08,25,10,29,23.10
2016,08,25,10,30,23.10
2016,08,25,10,31,23.20
2016,08,25,10,32,23.20
2016,08,25,10,33,23.20
2016,08,25,10,34,23.30
2016,08,25,10,35,23.40
2016,08,25,10,36,23.40
2016,08,25,10,37,23.50
2016,08,25,10,38,23.60
2016,08,25,10,39,23.60
2016,08,25,10,40,23.60
2016,08,25,10,41,23.70
2016,08,25,10,42,23.70
2016,08,25,10,43,23.70
2016,08,25,10,44,23.70
2016,08,25,10,45,23.70
2016,08,25,10,46,23.80
2016,08,25,10,47,23.80
2016,08,25,10,48,23.90
2016,08,25,10,49,23.90
2016,08,25,10,50,23.90
2016,08,25,10,51,23.90
2016,08,25,10,52,23.90
2016,08,25,10,53,23.90
2016,08,25,10,54,23.90
2016,08,25,10,55,24.00
2016,08,25,10,56,24.10
2016,08,25,10,57,24.20
2016,08,25,10,58,24.30
2016,08,25,10,59,24.30
2016,08,25,11,00,24.40
2016,08,25,11,01,24.40
2016,08,25,11,02,24.40
2016,08,25,11,03,24.50
2016,08,25,11,04,24.60
2016,08,25,11,05,24.70
2016,08,25,11,06,24.80
2016,08,25,11,07,24.80
2016,08,25,11,08,24.90
2016,08,25,11,09,24.90
2016,08,25,11,10,24.90
2016,08,25,11,11,25.00
2016,08,25,11,12,25.10
2016,08,25,11,13,25.20
2016,08,25,11,14,25.20
2016,08,25,11,15,25.30
2016,08,25,11,16,25.30
2016,08,25,11,17,25.40
2016,08,25,11,18,25.40
2016,08,25,11,19,25.40
2016,08,25,11,20,25.40
2016,08,25,11,21,25.40
2016,08,25,11,22,25.40
2016,08,25,11,23,25.40
2016,08,25,11,24,25.40
2016,08,25,11,25,25.40
2016,08,25,11,26,25.50
2016,08,25,11,27,25.50
2016,08,25,11,28,25.70
2016,08,25,11,29,25.80
2016,08,25,11,30,25.90
2016,08,25,11,31,26.00
2016,08,25,11,32,26.10
2016,08,25,11,33,26.20
2016,08,25,11,34,26.30
2016,08,25,11,35,26.40
2016,08,25,11,36,26.40
2016,08,25,11,37,26.50
2016,08,25,11,38,26.60
2016,08,25,11,39,26.70
2016,08,25,11,40,26.80
2016,08,25,11,41,26.90
2016,08,25,11,42,27.00
2016,08,25,11,43,27.10
2016,08,25,11,44,27.30
2016,08,25,11,45,27.40
2016,08,25,11,46,27.50
2016,08,25,11,47,27.50
2016,08,25,11,48,27.50
2016,08,25,11,49,27.60
2016,08,25,11,50,27.70
2016,08,25,11,51,27.80
2016,08,25,11,52,27.90
2016,08,25,11,53,27.90
2016,08,25,11,54,28.00
2016,08,25,11,55,28.10
2016,08,25,11,56,28.20
2016,08,25,11,57,28.20
2016,08,25,11,58,28.20
2016,08,25,11,59,28.20
2016,08,25,12,00,28.30
2016,08,25,12,01,28.40
2016,08,25,12,02,28.50
2016,08,25,12,03,28.50
2016,08,25,12,04,28.60
2016,08,25,12,05,28.80
2016,08,25,12,06,28.80
2016,08,25,12,07,28.90
2016,08,25,12,08,28.90
2016,08,25,12,09,29.00
2016,08,25,12,10,29.00
2016,08,25,12,11,29.10
2016,08,25,12,12,29.10
2016,08,25,12,13,29.20
2016,08,25,12,14,29.20
2016,08,25,12,15,29.30
2016,08,25,12,16,29.30
2016,08,25,12,17,29.40
2016,08,25,12,18,29.40
2016,08,25,12,19,29.50
2016,08,25,12,20,29.60
2016,08,25,12,21,29.60
2016,08,25,12,22,29.60
2016,08,25,12,23,29.60
2016,08,25,12,24,29.60
2016,08,25,12,25,29.60
2016,08,25,12,26,29.70
2016,08,25,12,27,29.70
2016,08,25,12,28,29.80
2016,08,25,12,29,29.80
2016,08,25,12,30,29.80
2016,08,25,12,31,29.70
2016,08,25,12,32,29.70
2016,08,25,12,33,29.80
2016,08,25,12,34,29.90
2016,08,25,12,35,30.00
2016,08,25,12,36,30.00
2016,08,25,12,37,30.10
2016,08,25,12,38,30.20
2016,08,25,12,39,30.20
2016,08,25,12,40,30.30
2016,08,25,12,41,30.30
2016,08,25,12,42,30.40
2016,08,25,12,43,30.40
2016,08,25,12,44,30.50
2016,08,25,12,45,30.60
2016,08,25,12,46,30.70
2016,08,25,12,47,30.80
2016,08,25,12,48,30.90
2016,08,25,12,49,31.00
2016,08,25,12,50,31.00
2016,08,25,12,51,31.00
2016,08,25,12,52,31.00
2016,08,25,12,53,31.00
2016,08,25,12,54,31.00
2016,08,25,12,55,31.10
2016,08,25,12,56,31.10
2016,08,25,12,57,31.10
2016,08,25,12,58,31.10
2016,08,25,12,59,31.10
2016,08,25,13,00,31.10
2016,08,25,13,01,31.10
2016,08,25,13,02,31.20
2016,08,25,13,03,31.20
2016,08,25,13,04,31.20
2016,08,25,13,05,31.20
2016,08,25,13,06,31.20
2016,08,25,13,07,31.20
2016,08,25,13,08,31.30
2016,08,25,13,09,31.30
2016,08,25,13,10,31.40
2016,08,25,13,11,31.50
2016,08,25,13,12,31.50
2016,08,25,13,13,31.60
2016,08,25,13,14,31.70
2016,08,25,13,15,31.80
2016,08,25,13,16,31.90
2016,08,25,13,17,32.00
2016,08,25,13,18,32.10
2016,08,25,13,19,32.10
2016,08,25,13,20,32.20
2016,08,25,13,21,32.20
2016,08,25,13,22,32.20
2016,08,25,13,23,32.30
2016,08,25,13,24,32.20
2016,08,25,13,25,32.20
2016,08,25,13,26,32.30
2016,08,25,13,27,32.40
2016,08,25,13,28,32.40
2016,08,25,13,29,32.40
2016,08,25,13,30,32.40
2016,08,25,13,31,32.30
2016,08,25,13,32,32.30
2016,08,25,13,33,32.30
2016,08,25,13,34,32.30
2016,08,25,13,35,32.30
2016,08,25,13,36,32.40
2016,08,25,13,37,32.40
2016,08,25,13,38,32.40
2016,08,25,13,39,32.50
2016,08,25,13,40,32.60
2016,08,25,13,41,32.60
2016,08,25,13,42,32.60
2016,08,25,13,43,32.50
2016,08,25,13,44,32.50
2016,08,25,13,45,32.50
2016,08,25,13,46,32.60
2016,08,25,13,47,32.70
2016,08,25,13,48,32.80
2016,08,25,13,49,32.80
2016,08,25,13,50,32.80
2016,08,25,13,51,32.80
2016,08,25,13,52,32.90
2016,08,25,13,53,33.00
2016,08,25,13,54,33.10
2016,08,25,13,55,33.10
2016,08,25,13,56,33.20
2016,08,25,13,57,33.20
2016,08,25,13,58,33.20
2016,08,25,13,59,33.20
2016,08,25,14,00,33.30
2016,08,25,14,01,33.30
2016,08,25,14,02,33.40
2016,08,25,14,03,33.50
2016,08,25,14,04,33.60
2016,08,25,14,05,33.60
2016,08,25,14,06,33.60
2016,08,25,14,07,33.60
2016,08,25,14,08,33.60
2016,08,25,14,09,33.60
2016,08,25,14,10,33.60
2016,08,25,14,11,33.60
2016,08,25,14,12,33.60
2016,08,25,14,13,33.70
2016,08,25,14,14,33.70
2016,08,25,14,15,33.70
2016,08,25,14,16,33.70
2016,08,25,14,17,33.70
2016,08,25,14,18,33.70
2016,08,25,14,19,33.70
2016,08,25,14,20,33.70
2016,08,25,14,21,33.70
2016,08,25,14,22,33.70
2016,08,25,14,23,33.80
2016,08,25,14,24,33.80
2016,08,25,14,25,33.90
2016,08,25,14,26,34.00
2016,08,25,14,27,34.10
2016,08,25,14,28,34.10
2016,08,25,14,29,34.10
2016,08,25,14,30,34.10
2016,08,25,14,31,34.10
2016,08,25,14,32,34.00
2016,08,25,14,33,34.10
2016,08,25,14,34,34.00
2016,08,25,14,35,34.00
2016,08,25,14,36,34.00
2016,08,25,14,37,34.00
2016,08,25,14,38,34.00
2016,08,25,14,39,34.00
2016,08,25,14,40,34.10
2016,08,25,14,41,34.10
2016,08,25,14,42,34.10
2016,08,25,14,43,34.10
2016,08,25,14,44,34.00
2016,08,25,14,45,33.90
2016,08,25,14,46,33.90
2016,08,25,14,47,33.80
2016,08,25,14,48,33.90
2016,08,25,14,49,33.90
2016,08,25,14,50,33.90
2016,08,25,14,51,33.90
2016,08,25,14,52,33.90
2016,08,25,14,53,33.80
2016,08,25,14,54,33.80
2016,08,25,14,55,33.80
2016,08,25,14,56,33.80
2016,08,25,14,57,33.80
2016,08,25,14,58,33.80
2016,08,25,14,59,33.80
2016,08,25,15,00,33.90
2016,08,25,15,01,33.90
2016,08,25,15,02,34.00
2016,08,25,15,03,34.10
2016,08,25,15,04,34.10
2016,08,25,15,05,34.20
2016,08,25,15,06,34.10
2016,08,25,15,07,34.10
2016,08,25,15,08,34.00
2016,08,25,15,09,33.90
2016,08,25,15,10,33.90
2016,08,25,15,11,33.90
2016,08,25,15,12,33.90
2016,08,25,15,13,34.00
2016,08,25,15,14,34.00
2016,08,25,15,15,34.10
2016,08,25,15,16,34.10
2016,08,25,15,17,34.00
2016,08,25,15,18,33.90
2016,08,25,15,19,33.90
2016,08,25,15,20,33.80
2016,08,25,15,21,33.70
2016,08,25,15,22,33.70
2016,08,25,15,23,33.80
2016,08,25,15,24,33.80
2016,08,25,15,25,33.80
2016,08,25,15,26,33.80
2016,08,25,15,27,33.90
2016,08,25,15,28,34.00
2016,08,25,15,29,34.10
2016,08,25,15,30,34.10
2016,08,25,15,31,34.10
2016,08,25,15,32,34.20
2016,08,25,15,33,34.20
2016,08,25,15,34,34.10
2016,08,25,15,35,34.10
2016,08,25,15,36,34.20
2016,08,25,15,37,34.20
2016,08,25,15,38,34.20
2016,08,25,15,39,34.20
2016,08,25,15,40,34.10
2016,08,25,15,41,34.00
2016,08,25,15,42,33.80
2016,08,25,15,43,33.80
2016,08,25,15,44,33.60
2016,08,25,15,45,33.60
2016,08,25,15,46,33.60
2016,08,25,15,47,33.60
2016,08,25,15,48,33.70
2016,08,25,15,49,33.80
2016,08,25,15,50,33.80
2016,08,25,15,51,33.80
2016,08,25,15,52,33.80
2016,08,25,15,53,33.80
2016,08,25,15,54,33.90
2016,08,25,15,55,33.90
2016,08,25,15,56,33.80
2016,08,25,15,57,33.80
2016,08,25,15,58,33.90
2016,08,25,15,59,33.80
2016,08,25,16,00,33.80
2016,08,25,16,01,33.80
2016,08,25,16,02,33.80
2016,08,25,16,03,33.70
2016,08,25,16,04,33.70
2016,08,25,16,05,33.70
2016,08,25,16,06,33.60
2016,08,25,16,07,33.60
2016,08,25,16,08,33.50
2016,08,25,16,09,33.60
2016,08,25,16,10,33.60
2016,08,25,16,11,33.70
2016,08,25,16,12,33.80
2016,08,25,16,13,33.90
2016,08,25,16,14,33.90
2016,08,25,16,15,33.90
2016,08,25,16,16,33.80
2016,08,25,16,17,33.80
2016,08,25,16,18,33.80
2016,08,25,16,19,33.80
2016,08,25,16,20,33.80
2016,08,25,16,21,33.70
2016,08,25,16,22,33.70
2016,08,25,16,23,33.60
2016,08,25,16,24,33.60
2016,08,25,16,25,33.60
2016,08,25,16,26,33.50
2016,08,25,16,27,33.50
2016,08,25,16,28,33.50
2016,08,25,16,29,33.50
2016,08,25,16,30,33.40
2016,08,25,16,31,33.40
2016,08,25,16,32,33.30
2016,08,25,16,33,33.30
2016,08,25,16,34,33.30
2016,08,25,16,35,33.20
2016,08,25,16,36,33.20
2016,08,25,16,37,33.20
2016,08,25,16,38,33.20
2016,08,25,16,39,33.30
2016,08,25,16,40,33.30
2016,08,25,16,41,33.30
2016,08,25,16,42,33.40
2016,08,25,16,43,33.40
2016,08,25,16,44,33.40
2016,08,25,16,45,33.30
2016,08,25,16,46,33.30
2016,08,25,16,47,33.30
2016,08,25,16,48,33.20
2016,08,25,16,49,33.20
2016,08,25,16,50,33.20
2016,08,25,16,51,33.20
2016,08,25,16,52,33.20
2016,08,25,16,53,33.20
2016,08,25,16,54,33.20
2016,08,25,16,55,33.20
2016,08,25,16,56,33.20
2016,08,25,16,57,33.30
2016,08,25,16,58,33.30
2016,08,25,16,59,33.30
2016,08,25,17,00,33.30
2016,08,25,17,01,33.20
2016,08,25,17,02,33.20
2016,08,25,17,03,33.20
2016,08,25,17,04,33.30
2016,08,25,17,05,33.30
2016,08,25,17,06,33.20
2016,08,25,17,07,33.20
2016,08,25,17,08,33.20
2016,08,25,17,09,33.30
2016,08,25,17,10,33.40
2016,08,25,17,11,33.40
2016,08,25,17,12,33.40
2016,08,25,17,13,33.40
2016,08,25,17,14,33.40
2016,08,25,17,15,33.30
2016,08,25,17,16,33.30
2016,08,25,17,17,33.30
2016,08,25,17,18,33.20
2016,08,25,17,19,33.10
2016,08,25,17,20,33.10
2016,08,25,17,21,33.10
2016,08,25,17,22,33.20
2016,08,25,17,23,33.20
2016,08,25,17,24,33.10
2016,08,25,17,25,33.20
2016,08,25,17,26,33.10
2016,08,25,17,27,33.10
2016,08,25,17,28,33.00
2016,08,25,17,29,33.10
2016,08,25,17,30,33.10
2016,08,25,17,31,33.00
2016,08,25,17,32,33.10
2016,08,25,17,33,33.10